N0NB Weather Reports


time (UTC)temp
C
wind
direction
speed
KPH
gust
KPH
rain 1hr
cm
rain 24hr
cm
rain mn
cm
humidity
%
barometer
mb
20260507135017 11 248 14.5 24.1 0.00 0.00 0.00 71 1013.1
20260507134017 10 248 16.1 24.1 0.00 0.00 0.00 73 1013.3
20260507133017 10 248 16.1 25.7 0.00 0.00 0.00 74 1013.3
20260507132015 10 248 16.1 24.1 0.00 0.00 0.00 75 1013.5
20260507131017 9 248 17.7 24.1 0.00 0.00 0.00 76 1013.6
20260507130017 8 248 16.1 27.4 0.00 0.00 0.00 77 1013.6
20260507125017 8 248 16.1 24.1 0.00 0.00 0.00 78 1013.3
20260507124017 8 248 16.1 25.7 0.00 0.00 0.00 80 1013.3
20260507123017 7 248 16.1 20.9 0.00 0.00 0.00 81 1013.3
20260507122017 7 248 12.9 19.3 0.00 0.00 0.00 82 1013.2
20260507121017 6 270 12.9 19.3 0.00 0.00 0.00 84 1013.3
20260507120017 6 248 12.9 24.1 0.00 0.00 0.00 85 1013.3
20260507115017 6 248 11.3 19.3 0.00 0.00 0.00 85 1013.3
20260507114017 6 248 11.3 20.9 0.00 0.00 0.00 85 1013.5
20260507113017 6 248 12.9 20.9 0.00 0.00 0.00 85 1013.5
20260507112017 6 248 14.5 22.5 0.00 0.00 0.00 85 1013.6
20260507111017 6 248 12.9 20.9 0.00 0.00 0.00 85 1013.5
20260507110017 6 248 12.9 22.5 0.00 0.00 0.00 85 1013.6
20260507105017 6 248 12.9 19.3 0.00 0.00 0.00 85 1013.6
20260507104017 6 248 11.3 17.7 0.00 0.00 0.00 85 1013.5
20260507103017 6 248 12.9 20.9 0.00 0.00 0.00 85 1013.5
20260507102017 6 248 14.5 20.9 0.00 0.00 0.00 85 1013.7
20260507101016 6 248 14.5 20.9 0.00 0.00 0.00 85 1014.0
20260507100016 6 248 12.9 20.9 0.00 0.00 0.00 86 1014.0
20260507095017 6 248 12.9 19.3 0.00 0.00 0.00 86 1014.1
20260507094017 6 248 12.9 17.7 0.00 0.00 0.00 86 1014.2
20260507093017 6 248 9.7 16.1 0.00 0.00 0.00 86 1014.2
20260507092017 6 248 9.7 16.1 0.00 0.00 0.00 86 1014.4
20260507091016 6 248 9.7 17.7 0.00 0.00 0.00 85 1014.3
20260507090016 6 248 9.7 16.1 0.00 0.00 0.00 85 1014.4
20260507085016 6 248 9.7 14.5 0.00 0.00 0.00 83 1014.3
20260507084016 6 248 9.7 17.7 0.00 0.00 0.00 82 1014.4
20260507083016 7 248 9.7 14.5 0.00 0.00 0.00 82 1014.6
20260507082017 7 248 11.3 16.1 0.00 0.00 0.00 81 1014.7
20260507081016 7 248 9.7 14.5 0.00 0.00 0.00 81 1014.6
20260507080016 7 248 9.7 16.1 0.00 0.00 0.00 80 1014.7
20260507075016 7 248 9.7 14.5 0.00 0.00 0.00 80 1014.8
20260507074016 7 248 9.7 16.1 0.00 0.00 0.00 81 1014.9
20260507073016 7 270 8.0 12.9 0.00 0.00 0.00 81 1014.8
20260507072016 6 248 8.0 12.9 0.00 0.00 0.00 81 1015.0
20260507071016 6 248 6.4 9.7 0.00 0.00 0.00 80 1015.0
20260507070016 6 248 6.4 8.0 0.00 0.00 0.00 79 1015.1
20260507065016 7 248 6.4 8.0 0.00 0.00 0.00 77 1015.4
20260507064016 7 248 8.0 12.9 0.00 0.00 0.00 76 1015.5
20260507063016 7 248 6.4 11.3 0.00 0.00 0.00 76 1015.6
20260507062016 7 248 8.0 12.9 0.00 0.00 0.00 75 1015.6
20260507061016 7 248 8.0 12.9 0.00 0.00 0.00 75 1015.6
20260507060016 7 248 8.0 11.3 0.00 0.00 0.00 73 1015.8
20260507055016 7 248 6.4 11.3 0.00 0.00 0.00 73 1015.8
20260507054016 7 248 6.4 11.3 0.00 0.00 0.00 72 1015.9
20260507053016 7 248 8.0 11.3 0.00 0.00 0.00 71 1016.0
20260507052016 7 248 8.0 12.9 0.00 0.00 0.00 71 1015.9
20260507051016 7 248 6.4 11.3 0.00 0.00 0.00 70 1015.9
20260507050016 7 248 8.0 11.3 0.00 0.00 0.00 69 1015.8
20260507045015 8 248 6.4 9.7 0.00 0.00 0.00 68 1016.0
20260507044015 7 248 4.8 8.0 0.00 0.00 0.00 67 1015.9
20260507043015 8 248 4.8 8.0 0.00 0.00 0.00 66 1016.0
20260507042015 8 248 6.4 8.0 0.00 0.00 0.00 64 1016.0
20260507041015 8 248 6.4 8.0 0.00 0.00 0.00 63 1016.0
20260507040015 9 248 6.4 8.0 0.00 0.00 0.00 61 1016.0
20260507035015 9 248 6.4 8.0 0.00 0.00 0.00 59 1016.0
20260507034015 10 248 4.8 11.3 0.00 0.00 0.00 58 1015.9
20260507033015 10 248 6.4 11.3 0.00 0.00 0.00 55 1016.0
20260507032017 10 248 4.8 8.0 0.00 0.00 0.00 53 1015.9
20260507031017 10 270 4.8 9.7 0.00 0.00 0.00 52 1015.9
20260507030017 10 270 6.4 11.3 0.00 0.00 0.00 51 1015.9
20260507025017 10 248 4.8 11.3 0.00 0.00 0.00 52 1015.9
20260507024017 10 270 4.8 6.4 0.00 0.00 0.00 52 1015.7
20260507023017 10 270 3.2 4.8 0.00 0.00 0.00 51 1015.5
20260507022017 10 270 3.2 4.8 0.00 0.00 0.00 53 1015.5
20260507021017 10 270 4.8 4.8 0.00 0.00 0.00 48 1015.4
20260507020017 10 270 3.2 4.8 0.00 0.00 0.00 47 1015.2
20260507015017 10 270 3.2 4.8 0.00 0.00 0.00 51 1015.1
20260507014017 11 270 3.2 4.8 0.00 0.00 0.00 47 1015.1
20260507013017 11 293 4.8 6.4 0.00 0.00 0.00 45 1015.1
20260507012017 12 293 1.6 3.2 0.00 0.00 0.00 45 1015.1
20260507011017 12 293 3.2 4.8 0.00 0.00 0.00 40 1015.1
20260507010017 14 0.0 1.6 0.00 0.00 0.00 41 1015.3
20260507005017 14 293 1.6 3.2 0.00 0.00 0.00 33 1015.3
20260507004017 15 293 1.6 3.2 0.00 0.00 0.00 33 1015.2
20260507003017 15 293 3.2 6.4 0.00 0.00 0.00 31 1015.4
20260507002017 15 315 4.8 9.7 0.00 0.00 0.00 31 1015.5
20260507001017 15 293 6.4 11.3 0.00 0.00 0.00 31 1015.4
20260507000017 16 315 6.4 12.9 0.00 0.00 0.00 29 1015.6
20260506235017 16 315 4.8 9.7 0.00 0.00 0.00 31 1015.6
20260506234017 15 270 11.3 19.3 0.00 0.00 0.00 32 1015.5
20260506233017 16 315 4.8 12.9 0.00 0.00 0.00 30 1015.7
20260506232017 16 293 6.4 14.5 0.00 0.00 0.00 32 1015.8
20260506231017 16 293 8.0 19.3 0.00 0.00 0.00 31 1015.8
20260506230017 15 293 4.8 12.9 0.00 0.00 0.00 35 1015.9
20260506225017 15 270 4.8 9.7 0.00 0.00 0.00 30 1015.9
20260506224017 16 315 6.4 14.5 0.00 0.00 0.00 30 1016.0
20260506223017 16 270 6.4 17.7 0.00 0.00 0.00 30 1016.0
20260506222016 15 293 4.8 12.9 0.00 0.00 0.00 33 1016.0
20260506221017 15 293 8.0 16.1 0.00 0.00 0.00 32 1016.1
20260506220016 15 293 12.9 22.5 0.00 0.00 0.00 29 1016.2
20260506215016 16 270 11.3 20.9 0.00 0.00 0.00 33 1016.3
20260506214009 16 315 8.0 19.3 0.00 0.00 0.00 31 1016.4
20260506213016 16 293 8.0 16.1 0.00 0.00 0.00 32 1016.7
20260506212016 16 270 6.4 17.7 0.00 0.00 0.00 33 1016.6
20260506211017 16 45 4.8 11.3 0.00 0.00 0.00 30 1017.0
20260506210016 16 315 6.4 14.5 0.00 0.00 0.00 29 1017.0
20260506205016 16 0 6.4 12.9 0.00 0.00 0.00 30 1017.3
20260506204016 15 293 6.4 16.1 0.00 0.00 0.00 31 1017.3
20260506203016 16 293 11.3 22.5 0.00 0.00 0.00 31 1017.5
20260506202016 15 270 1.6 8.0 0.00 0.00 0.00 34 1017.5
20260506201016 15 293 9.7 25.7 0.00 0.00 0.00 30 1017.8
20260506200016 15 293 8.0 19.3 0.00 0.00 0.00 31 1017.8
20260506195016 15 270 9.7 17.7 0.00 0.00 0.00 34 1018.0
20260506194016 14 293 11.3 22.5 0.00 0.00 0.00 34 1018.0
20260506193016 15 338 6.4 16.1 0.00 0.00 0.00 33 1018.1
20260506192016 14 270 4.8 12.9 0.00 0.00 0.00 34 1018.2
20260506191016 14 338 9.7 17.7 0.00 0.00 0.00 33 1018.1
20260506190016 14 338 6.4 14.5 0.00 0.00 0.00 32 1018.2
20260506185016 14 315 6.4 14.5 0.00 0.00 0.00 32 1018.3
20260506184016 13 293 6.4 22.5 0.00 0.00 0.00 35 1018.5
20260506183016 13 270 3.2 11.3 0.00 0.00 0.00 33 1018.3
20260506182016 13 315 6.4 16.1 0.00 0.00 0.00 32 1018.3
20260506181016 13 270 6.4 20.9 0.00 0.00 0.00 32 1018.3
20260506180016 14 270 4.8 11.3 0.00 0.00 0.00 35 1018.4
20260506175016 13 315 6.4 19.3 0.00 0.00 0.00 33 1018.6
20260506174016 13 68 3.2 9.7 0.00 0.00 0.00 35 1018.5
20260506173016 13 270 8.0 12.9 0.00 0.00 0.00 40 1018.7
20260506172016 13 293 3.2 12.9 0.00 0.00 0.00 38 1018.7
20260506171017 13 338 8.0 17.7 0.00 0.00 0.00 37 1018.9
20260506170016 13 68 4.8 16.1 0.00 0.00 0.00 36 1018.9
20260506165016 12 270 6.4 16.1 0.00 0.00 0.00 36 1018.9
20260506164016 12 293 8.0 17.7 0.00 0.00 0.00 36 1019.0
20260506163016 12 315 3.2 11.3 0.00 0.00 0.00 35 1019.1
20260506162016 12 45 6.4 12.9 0.00 0.00 0.00 41 1019.2
20260506161016 12 90 3.2 11.3 0.00 0.00 0.00 43 1019.1
20260506160016 12 45 4.8 14.5 0.00 0.00 0.00 39 1019.0
20260506155016 12 90 1.6 3.2 0.00 0.00 0.00 40 1019.0
20260506154016 11 68 1.6 4.8 0.00 0.00 0.00 46 1018.9
20260506153016 11 0.0 3.2 0.00 0.00 0.00 48 1019.0
20260506152016 10 68 1.6 6.4 0.00 0.00 0.00 45 1018.9
20260506151016 10 68 1.6 4.8 0.00 0.00 0.00 48 1018.8
20260506150016 10 68 1.6 3.2 0.00 0.00 0.00 46 1018.7
20260506145016 10 68 3.2 8.0 0.00 0.00 0.00 47 1018.5
20260506144016 10 45 1.6 6.4 0.00 0.00 0.00 49 1018.5
20260506143016 9 68 3.2 6.4 0.00 0.00 0.00 49 1018.5
20260506142016 9 0 1.6 6.4 0.00 0.00 0.00 53 1018.4
20260506141015 9 45 3.2 6.4 0.00 0.00 0.00 50 1018.4
20260506140016 9 68 1.6 4.8 0.00 0.00 0.00 52 1018.5